Stations météo

réclame
Mon MeteoGroup
Camborne, Grande-Bretagne (3808): Température de l'air & dewpoint: 13.01.2020 20:00:00 - 19.01.2020 20:00:00 (GMT)Camborne, Grande-Bretagne (3808): Température de l'air -20cm & Température de l'air -100cm: 13.01.2020 20:00:00 - 19.01.2020 20:00:00 (GMT)Camborne, Grande-Bretagne (3808): Vitesse du vent & gusts: 13.01.2020 20:00:00 - 19.01.2020 20:00:00 (GMT)Camborne, Grande-Bretagne (3808): Direction du vent: 13.01.2020 20:00:00 - 19.01.2020 20:00:00 (GMT)Camborne, Grande-Bretagne (3808): reduced air pressure: 13.01.2020 20:00:00 - 19.01.2020 20:00:00 (GMT)Camborne, Grande-Bretagne (3808): visibility: 13.01.2020 20:00:00 - 19.01.2020 20:00:00 (GMT)Camborne, Grande-Bretagne (3808): Ensoleillement: 13.01.2020 20:00:00 - 19.01.2020 20:00:00 (GMT)Camborne, Grande-Bretagne (3808): Quantités de précipitations: 13.01.2020 20:00:00 - 19.01.2020 20:00:00 (GMT)
Date & Time tt [°C] td [°C] tt -20cm [°C] tt -100cm [°C] ff [km/h] ff [knt] fx [km/h] fx [knt] dd ppp [hPa] vv [km] sd [min] rr [mm]
19.01.2020 20:00:00 2,8 -0,2 - - 2 1 - - SE 1049,2 25 0 0,0
19.01.2020 19:00:00 3,8 0,3 - - 8 4 - - E 1048,6 22 0 0,0
19.01.2020 18:00:00 4,1 0,5 - - 9 5 - - ESE 1048,3 25 0 0,0
19.01.2020 17:00:00 5,6 2,0 - - 5 3 - - E 1047,8 25 36 0,0
19.01.2020 16:00:00 7,0 2,2 - - 5 3 - - N 1047,6 25 60 0,0
19.01.2020 15:00:00 7,4 2,1 - - 9 5 - - NNW 1047,1 30 60 0,0
19.01.2020 14:00:00 8,3 -0,9 - - 8 4 - - ESE 1046,3 40 60 0,0
19.01.2020 13:00:00 8,7 2,3 - - 2 1 - - S 1046,4 40 60 0,0
19.01.2020 12:00:00 6,7 1,9 - - 8 4 - - NNE 1046,9 35 60 0,0
19.01.2020 11:00:00 5,5 1,5 - - 4 2 - - NE 1046,9 40 60 0,0
19.01.2020 10:00:00 4,7 0,4 - - 8 4 - - ENE 1045,6 40 60 0,0
19.01.2020 09:00:00 3,0 -0,3 9,2 9,9 8 4 - - E 1045,1 40 12 0,0
19.01.2020 08:00:00 2,6 1,2 - - 8 4 - - ENE 1044,1 30 0 0,0
19.01.2020 07:00:00 2,7 1,0 - - 11 6 - - ENE 1043,2 30 0 0,0
19.01.2020 06:00:00 3,0 0,7 - - 11 6 - - E 1042,5 35 0 0,0
19.01.2020 05:00:00 2,4 0,2 - - 11 6 - - ENE 1042,0 35 0 0,0
19.01.2020 04:00:00 2,4 -0,1 - - 15 8 - - ENE 1041,2 35 0 0,0
19.01.2020 03:00:00 2,9 -0,2 - - 13 7 - - NE 1040,6 35 0 0,0
19.01.2020 02:00:00 2,2 -0,4 - - 11 6 - - E 1039,5 30 0 0,0
19.01.2020 01:00:00 3,1 -0,2 - - 13 7 - - NE 1039,9 30 0 0,0
19.01.2020 00:00:00 2,8 -0,1 - - 11 6 - - NE 1038,9 25 - 0,0
18.01.2020 23:00:00 2,5 -0,6 - - 11 6 - - ENE 1038,6 25 0 0,0
18.01.2020 22:00:00 2,5 -1,0 - - 11 6 - - NE 1037,4 25 0 0,0
18.01.2020 21:00:00 2,7 -0,5 - - 13 7 - - NE 1036,5 20 0 0,0
18.01.2020 20:00:00 3,3 -0,3 - - 13 7 - - ENE 1034,9 25 0 0,0
18.01.2020 19:00:00 3,2 -0,5 - - 13 7 - - ENE 1034,0 30 0 0,0
18.01.2020 18:00:00 3,8 -0,8 - - 18 10 - - NE 1032,4 30 0 0,0
18.01.2020 17:00:00 5,0 -0,9 - - 11 6 - - ENE 1031,2 40 36 0,0
18.01.2020 16:00:00 6,8 -1,3 - - 11 6 - - ENE 1030,2 40 60 0,0
18.01.2020 15:00:00 7,3 -1,9 - - 15 8 - - E 1029,5 40 60 0,0
18.01.2020 14:00:00 7,6 0,7 - - 16 9 - - E 1029,1 35 60 0,0
18.01.2020 13:00:00 7,5 1,1 - - 15 8 - - E 1028,9 30 60 0,0
18.01.2020 12:00:00 7,2 1,5 - - 15 8 - - E 1028,4 25 60 0,0
18.01.2020 11:00:00 6,2 2,6 - - 16 9 - - E 1028,0 25 60 0,0
18.01.2020 10:00:00 5,3 3,4 - - 11 6 - - E 1027,7 22 48 0,0
18.01.2020 09:00:00 3,8 2,4 9,9 10,0 5 3 - - E 1027,0 25 0 0,0
18.01.2020 08:00:00 3,9 1,7 - - 11 6 - - E 1026,1 25 0 0,0
18.01.2020 07:00:00 3,9 1,6 - - 9 5 - - ESE 1026,0 24 0 0,0
18.01.2020 06:00:00 4,2 1,7 - - 9 5 - - ESE 1025,9 30 0 0,0
18.01.2020 05:00:00 3,0 1,6 - - 5 3 - - ESE 1025,7 30 0 0,0
18.01.2020 04:00:00 4,3 2,3 - - 4 2 - - SE 1025,4 25 0 0,0
18.01.2020 03:00:00 5,4 2,4 - - 5 3 - - N 1025,1 28 0 0,0
18.01.2020 02:00:00 6,7 2,6 - - 13 7 - - NW 1025,1 30 0 0,0
18.01.2020 01:00:00 6,9 2,9 - - 13 7 - - NNW 1024,7 30 0 0,0
18.01.2020 00:00:00 7,2 2,6 - - 18 10 - - NW 1024,2 40 - 0,0
17.01.2020 23:00:00 7,2 3,1 - - 21 11 - - NW 1023,4 35 0 0,0
17.01.2020 22:00:00 6,6 4,1 - - 22 12 - - NW 1022,5 25 0 0,0
17.01.2020 21:00:00 6,1 4,6 - - 16 9 - - W 1022,0 18 0 0,8
17.01.2020 20:00:00 6,3 3,5 - - 18 10 46 25 W 1021,5 30 0 0,2
17.01.2020 19:00:00 6,9 2,1 - - 26 14 - - W 1020,7 30 0 0,0
17.01.2020 18:00:00 6,6 3,4 - - 21 11 - - W 1020,0 25 0 0,0
17.01.2020 17:00:00 5,0 2,7 - - 16 9 - - WNW 1019,1 35 0 0,8
17.01.2020 16:00:00 6,1 2,7 - - 21 11 - - WSW 1018,2 4,0 12 0,0
17.01.2020 15:00:00 5,3 2,5 - - 31 17 54 29 W 1017,6 10 12 0,0
17.01.2020 14:00:00 6,6 3,1 - - 26 14 - - WSW 1017,1 10 18 0,2
17.01.2020 13:00:00 6,2 3,4 - - 18 10 50 27 WSW 1017,0 12 18 0,6
17.01.2020 12:00:00 7,3 1,8 - - 22 12 59 32 WSW 1016,6 30 12 0,0
17.01.2020 11:00:00 7,2 1,9 - - 29 16 46 25 W 1016,1 8 36 0,4
17.01.2020 10:00:00 7,3 1,0 - - 28 15 - - W 1015,1 25 36 0,0
17.01.2020 09:00:00 6,6 1,7 10,4 10,0 28 15 46 25 W 1014,2 30 0 0,2
17.01.2020 08:00:00 5,5 2,9 - - 21 11 54 29 W 1013,3 30 0 0,2
17.01.2020 07:00:00 6,2 3,2 - - 24 13 46 25 W 1011,8 25 0 0,0
17.01.2020 06:00:00 6,3 3,7 - - 26 14 54 29 WNW 1010,4 30 0 0,0
17.01.2020 05:00:00 6,7 5,9 - - 31 17 54 29 W 1008,2 12 0 0,2
17.01.2020 04:00:00 6,9 5,2 - - 22 12 59 32 WSW 1006,8 35 0 1,4
17.01.2020 03:00:00 7,8 4,8 - - 26 14 - - SSW 1006,3 30 0 0,0
17.01.2020 02:00:00 7,5 5,6 - - 18 10 - - SSW 1006,1 23 0 0,4
17.01.2020 01:00:00 8,3 6,8 - - 16 9 - - SSW 1006,1 19 0 0,0
17.01.2020 00:00:00 7,4 6,5 - - 16 9 - - SW 1006,9 17 - 1,8
16.01.2020 23:00:00 9,7 7,5 - - 26 14 - - SSW 1006,6 16 0 0,0
16.01.2020 22:00:00 10,0 8,2 - - 26 14 - - SSW 1006,8 20 0 0,0
16.01.2020 21:00:00 9,0 6,2 - - 24 13 - - SW 1007,2 40 0 0,0
16.01.2020 20:00:00 9,6 7,8 - - 22 12 - - S 1006,6 14 0 0,0
16.01.2020 19:00:00 9,4 7,6 - - 18 10 - - SSW 1006,7 8 0 0,0
16.01.2020 18:00:00 9,3 7,6 - - 18 10 - - SW 1006,2 10 0 0,0
16.01.2020 17:00:00 9,6 7,9 - - 24 13 50 27 SW 1005,2 12 0 0,0
16.01.2020 16:00:00 10,4 8,2 - - 31 17 63 34 SW 1004,3 10 0 0,0
16.01.2020 15:00:00 11,6 10,2 - - 42 23 68 37 SSW 1003,2 8 0 0,0
16.01.2020 14:00:00 11,6 11,3 - - 44 24 65 35 SSW 1002,1 5 0 2,0
16.01.2020 13:00:00 11,2 10,3 - - 46 25 78 42 S 1001,8 2,6 0 0,8
16.01.2020 12:00:00 11,8 10,5 - - 50 27 83 45 S 1002,5 6 0 2,4
16.01.2020 11:00:00 11,1 10,7 - - 54 29 87 47 S 1003,6 1,5 0 4,2
16.01.2020 10:00:00 10,9 10,1 - - 50 27 76 41 SSE 1004,0 2,7 0 3,8
16.01.2020 09:00:00 10,4 9,2 10,2 10,0 50 27 76 41 SSE 1005,3 3,0 0 1,4
16.01.2020 08:00:00 10,3 8,0 - - 44 24 68 37 SSE 1006,5 8 0 0,0
16.01.2020 07:00:00 9,9 7,1 - - 39 21 59 32 SSE 1008,1 20 0 0,0
16.01.2020 06:00:00 9,7 7,3 - - 35 19 55 30 SSE 1009,3 15 0 0,0
16.01.2020 05:00:00 9,8 6,6 - - 37 20 55 30 S 1011,1 18 0 0,0
16.01.2020 04:00:00 9,8 5,5 - - 34 18 55 30 S 1012,0 20 0 0,0
16.01.2020 03:00:00 9,7 5,9 - - 34 18 59 32 S 1013,0 20 0 0,0
16.01.2020 02:00:00 10,0 6,4 - - 31 17 52 28 S 1013,8 19 0 0,0
16.01.2020 01:00:00 9,3 6,7 - - 29 16 55 30 S 1014,1 20 0 0,0
16.01.2020 00:00:00 9,4 6,3 - - 28 15 46 25 S 1014,4 20 - 0,0
15.01.2020 23:00:00 9,2 5,4 - - 26 14 - - SSW 1014,7 25 0 0,0
15.01.2020 22:00:00 8,9 5,0 - - 22 12 - - S 1014,8 24 0 0,0
15.01.2020 21:00:00 8,8 5,3 - - 21 11 - - S 1014,9 25 0 0,0
15.01.2020 20:00:00 8,8 5,2 - - 18 10 - - SSW 1014,7 20 0 0,0
15.01.2020 19:00:00 8,7 4,5 - - 22 12 - - SW 1014,3 24 0 0,0
15.01.2020 18:00:00 8,6 5,3 - - 26 14 - - SW 1013,5 21 0 0,0
15.01.2020 17:00:00 8,2 3,6 - - 24 13 46 25 SW 1012,8 27 0 0,0
15.01.2020 16:00:00 9,0 4,2 - - 26 14 46 25 SW 1011,9 25 18 0,0
15.01.2020 15:00:00 9,4 2,4 - - 34 18 50 27 WSW 1011,0 30 36 0,0
15.01.2020 14:00:00 9,9 2,4 - - 29 16 54 29 WSW 1010,1 30 54 0,0
15.01.2020 13:00:00 9,6 3,2 - - 34 18 50 27 WSW 1009,4 35 60 0,0
15.01.2020 12:00:00 9,3 3,7 - - 24 13 - - WSW 1008,6 30 60 0,0
15.01.2020 11:00:00 8,8 2,9 - - 26 14 - - WSW 1007,6 30 54 0,0
15.01.2020 10:00:00 7,5 3,5 - - 16 9 - - SW 1006,2 30 30 0,0
15.01.2020 09:00:00 6,9 4,2 10,5 10,0 21 11 - - WSW 1004,7 20 0 0,0
15.01.2020 08:00:00 6,8 3,7 - - 13 7 - - WSW 1003,4 28 0 0,0
15.01.2020 07:00:00 6,8 4,6 - - 13 7 - - SW 1002,3 25 0 0,0
15.01.2020 06:00:00 6,6 4,6 - - 9 5 - - SW 1001,2 30 0 0,0
15.01.2020 05:00:00 6,7 4,6 - - 11 6 - - SW 1000,6 29 0 0,0
15.01.2020 04:00:00 6,7 4,6 - - 13 7 - - SW 999,9 30 0 0,0
15.01.2020 03:00:00 6,9 5,5 - - 9 5 - - SW 999,6 25 0 0,0
15.01.2020 02:00:00 7,4 5,8 - - 13 7 - - SW 998,9 20 0 0,0
15.01.2020 01:00:00 7,4 6,3 - - 13 7 - - SW 998,2 20 0 0,0
15.01.2020 00:00:00 7,3 6,7 - - 11 6 - - SW 997,6 20 - 0,2
14.01.2020 23:00:00 7,4 7,0 - - 11 6 - - WSW 996,9 10 0 1,6
14.01.2020 22:00:00 7,5 6,8 - - 13 7 - - W 995,5 4,0 0 0,8
14.01.2020 21:00:00 7,8 7,6 - - 16 9 - - WNW 994,6 5 0 0,6
14.01.2020 20:00:00 8,8 8,2 - - 15 8 - - WSW 994,8 10 0 0,8
14.01.2020 19:00:00 9,5 9,0 - - 18 10 - - WSW 993,7 6 0 0,8
14.01.2020 18:00:00 9,7 8,9 - - 24 13 54 29 SW 992,8 5 0 1,0
14.01.2020 17:00:00 11,1 10,4 - - 31 17 59 32 SW 991,5 3,0 0 0,6
14.01.2020 16:00:00 11,2 10,5 - - 37 20 68 37 SW 990,1 9 0 0,2
14.01.2020 15:00:00 11,2 10,3 - - 42 23 81 44 SW 989,7 8 0 2,0
14.01.2020 14:00:00 12,1 11,9 - - 52 28 93 50 SSW 989,1 2,0 0 1,0
14.01.2020 13:00:00 12,4 11,8 - - 61 33 89 48 SSW 988,8 1,3 0 0,0
14.01.2020 12:00:00 12,4 11,7 - - 55 30 85 46 SSW 989,0 7 0 0,2
14.01.2020 11:00:00 11,9 11,7 - - 46 25 85 46 SSW 989,4 3,0 0 0,4
14.01.2020 10:00:00 10,4 10,1 - - 44 24 78 42 S 989,5 1,5 0 1,4
14.01.2020 09:00:00 9,5 7,2 10,2 10,2 37 20 57 31 S 991,0 5 0 0,0
14.01.2020 08:00:00 9,4 5,8 - - 29 16 54 29 S 993,6 15 0 0,0
14.01.2020 07:00:00 9,5 6,1 - - 29 16 54 29 SSW 995,3 18 0 1,4
14.01.2020 06:00:00 9,2 5,8 - - 26 14 - - SSW 995,7 13 0 0,0
14.01.2020 05:00:00 8,7 4,8 - - 24 13 - - SW 996,2 16 0 0,0
14.01.2020 04:00:00 7,6 4,9 - - 24 13 48 26 SW 997,0 16 0 0,4
14.01.2020 03:00:00 8,1 4,2 - - 22 12 46 25 SW 996,7 19 0 0,0
14.01.2020 02:00:00 8,6 3,9 - - 26 14 - - SW 997,0 15 0 0,0
14.01.2020 01:00:00 8,0 3,4 - - 26 14 48 26 SW 996,8 16 0 0,0
14.01.2020 00:00:00 8,5 3,6 - - 28 15 - - SW 997,2 14 - 0,0
13.01.2020 23:00:00 8,1 3,4 - - 26 14 - - SW 997,1 16 0 0,0
13.01.2020 22:00:00 8,2 2,8 - - 28 15 48 26 WSW 996,6 16 0 0,0
13.01.2020 21:00:00 8,1 4,6 - - 22 12 - - SW 996,2 10 0 0,0
13.01.2020 20:00:00 8,2 4,3 - - 18 10 - - WSW 996,0 14 0 0,0

tt = Température de l'air
td = dewpoint
tt -20cm = Température de l'air -20cm
tt -100cm = Température de l'air -100cm
ff = Vitesse du vent
fx = gusts
dd = Direction du vent
ppp = reduced air pressure
vv = visibility
sd = Ensoleillement
rr = Quantités de précipitations

stations d'obs. à proximité